• In Austria
  • List of Countries
  • For 7 days
  • Water Temperature
  • Satellite Maps
  • Weather Map
  • News
  • Weather Widgets
  • user-avatar
    Login

    Hourly Weather Quito

    Today, 21 May, Monday

    Time Temperature Precipitation Wind Pressure Humidity
    00:00 +17°C° 0 mm 0 mps 623 mmHg 63%
    01:00 +18°C° 0 mm 0 mps 623 mmHg 64%
    02:00 +17°C° 0 mm 0 mps 623 mmHg 64%
    03:00 +17°C° 0 mm 0 mps 623 mmHg 64%
    04:00 +17°C° 0 mm 0 mps 622 mmHg 65%
    05:00 +19°C° 0 mm 1 mps 623 mmHg 66%
    06:00 +19°C° 0 mm 1 mps 623 mmHg 68%
    07:00 +19°C° 0 mm 1 mps 624 mmHg 69%
    08:00 +20°C° 0.1 mm 1 mps 624 mmHg 64%
    09:00 +21°C° 0.1 mm 2 mps 624 mmHg 59%
    10:00 +22°C° 0.1 mm 3 mps 625 mmHg 55%
    11:00 +24°C° 0.1 mm 2 mps 625 mmHg 51%
    12:00 +25°C° 0.1 mm 2 mps 625 mmHg 48%
    13:00 +26°C° 0.1 mm 2 mps 624 mmHg 44%
    14:00 +25°C° 0 mm 1 mps 624 mmHg 48%
    15:00 +24°C° 0 mm 1 mps 623 mmHg 52%
    16:00 +22°C° 0 mm 0 mps 622 mmHg 56%
    17:00 +20°C° 0 mm 0 mps 622 mmHg 58%
    18:00 +19°C° 0 mm 0 mps 622 mmHg 61%
    19:00 +19°C° 0 mm 1 mps 622 mmHg 63%
    20:00 +19°C° 0 mm 1 mps 623 mmHg 62%
    21:00 +20°C° 0 mm 1 mps 623 mmHg 61%
    22:00 +20°C° 0 mm 1 mps 624 mmHg 60%
    23:00 +20°C° 0 mm 1 mps 623 mmHg 61%

    Tomorrow, 22 May, Tuesday

    Time Temperature Precipitation Wind Pressure Humidity
    00:00 +19°C° 0 mm 1 mps 623 mmHg 61%
    01:00 +19°C° 0 mm 1 mps 623 mmHg 62%
    02:00 +18°C° 0 mm 1 mps 623 mmHg 64%
    03:00 +16°C° 0 mm 1 mps 623 mmHg 67%
    04:00 +15°C° 0 mm 1 mps 622 mmHg 69%
    05:00 +16°C° 0 mm 1 mps 623 mmHg 69%
    06:00 +15°C° 0 mm 0 mps 623 mmHg 69%
    07:00 +15°C° 0 mm 0 mps 623 mmHg 68%
    08:00 +19°C° 0 mm 1 mps 624 mmHg 59%
    09:00 +20°C° 0 mm 2 mps 625 mmHg 50%
    10:00 +22°C° 0 mm 3 mps 626 mmHg 41%
    11:00 +24°C° 0 mm 3 mps 625 mmHg 39%
    12:00 +25°C° 0 mm 3 mps 625 mmHg 36%
    13:00 +26°C° 0 mm 3 mps 625 mmHg 34%
    14:00 +26°C° 0 mm 2 mps 625 mmHg 35%
    15:00 +26°C° 0 mm 2 mps 624 mmHg 37%
    16:00 +25°C° 0 mm 2 mps 624 mmHg 38%
    17:00 +23°C° 0 mm 1 mps 624 mmHg 43%
    18:00 +21°C° 0 mm 1 mps 623 mmHg 47%
    19:00 +19°C° 0 mm 1 mps 623 mmHg 52%
    20:00 +19°C° 0 mm 1 mps 623 mmHg 51%
    21:00 +19°C° 0 mm 1 mps 624 mmHg 50%
    22:00 +18°C° 0 mm 1 mps 624 mmHg 50%
    23:00 +18°C° 0 mm 1 mps 624 mmHg 49%

    Day after tomorrow, 23 May, Wednesday

    Time Temperature Precipitation Wind Pressure Humidity
    00:00 +18°C° 0 mm 1 mps 624 mmHg 48%
    01:00 +18°C° 0 mm 1 mps 624 mmHg 48%
    02:00 +18°C° 0 mm 1 mps 624 mmHg 49%
    03:00 +16°C° 0 mm 1 mps 624 mmHg 51%
    04:00 +16°C° 0 mm 1 mps 624 mmHg 53%
    05:00 +16°C° 0 mm 1 mps 624 mmHg 56%
    06:00 +15°C° 0 mm 1 mps 624 mmHg 58%
    07:00 +15°C° 0 mm 1 mps 624 mmHg 61%
    08:00 +17°C° 0 mm 2 mps 625 mmHg 54%
    09:00 +20°C° 0 mm 3 mps 626 mmHg 46%
    10:00 +22°C° 0 mm 3 mps 627 mmHg 39%
    11:00 +24°C° 0 mm 3 mps 627 mmHg 36%
    12:00 +25°C° 0 mm 2 mps 626 mmHg 33%
    13:00 +26°C° 0 mm 2 mps 626 mmHg 31%
    14:00 +25°C° 0 mm 2 mps 625 mmHg 33%
    15:00 +25°C° 0 mm 1 mps 625 mmHg 36%
    16:00 +24°C° 0 mm 1 mps 625 mmHg 38%
    17:00 +22°C° 0 mm 1 mps 624 mmHg 42%
    18:00 +20°C° 0 mm 1 mps 624 mmHg 46%
    19:00 +18°C° 0 mm 1 mps 624 mmHg 50%
    20:00 +18°C° 0 mm 1 mps 624 mmHg 50%
    21:00 +16°C° 0 mm 1 mps 624 mmHg 51%
    22:00 +16°C° 0 mm 1 mps 625 mmHg 52%
    23:00 +15°C° 0 mm 1 mps 624 mmHg 54%

    24 May, Thursday

    Time Temperature Precipitation Wind Pressure Humidity
    00:00 +14°C° 0 mm 1 mps 624 mmHg 56%
    01:00 +14°C° 0 mm 1 mps 624 mmHg 58%
    02:00 +14°C° 0 mm 1 mps 624 mmHg 61%
    03:00 +13°C° 0 mm 1 mps 623 mmHg 63%
    04:00 +13°C° 0 mm 1 mps 623 mmHg 65%
    05:00 +13°C° 0 mm 1 mps 623 mmHg 66%
    06:00 +13°C° 0 mm 1 mps 624 mmHg 66%
    07:00 +13°C° 0 mm 1 mps 624 mmHg 66%
    08:00 +16°C° 0 mm 2 mps 625 mmHg 57%
    09:00 +19°C° 0 mm 2 mps 626 mmHg 47%
    10:00 +23°C° 0 mm 2 mps 627 mmHg 38%
    11:00 +25°C° 0 mm 2 mps 627 mmHg 35%
    12:00 +26°C° 0 mm 1 mps 626 mmHg 33%
    13:00 +26°C° 0 mm 0 mps 626 mmHg 30%
    14:00 +27°C° 0 mm 1 mps 625 mmHg 33%
    15:00 +25°C° 0 mm 1 mps 624 mmHg 35%
    16:00 +24°C° 0 mm 1 mps 624 mmHg 37%
    17:00 +23°C° 0 mm 1 mps 624 mmHg 39%
    18:00 +21°C° 0 mm 1 mps 624 mmHg 41%
    19:00 +19°C° 0 mm 1 mps 624 mmHg 43%
    20:00 +19°C° 0 mm 1 mps 624 mmHg 43%
    21:00 +19°C° 0 mm 1 mps 624 mmHg 44%
    22:00 +18°C° 0 mm 1 mps 625 mmHg 44%
    23:00 +16°C° 0 mm 1 mps 624 mmHg 49%

    25 May, Friday

    Time Temperature Precipitation Wind Pressure Humidity
    00:00 +15°C° 0 mm 1 mps 623 mmHg 54%
    01:00 +14°C° 0 mm 2 mps 623 mmHg 59%
    02:00 +13°C° 0 mm 2 mps 622 mmHg 62%
    03:00 +13°C° 0 mm 2 mps 622 mmHg 65%
    04:00 +12°C° 0 mm 2 mps 622 mmHg 68%
    05:00 +12°C° 0 mm 1 mps 622 mmHg 70%
    06:00 +13°C° 0 mm 1 mps 623 mmHg 71%
    07:00 +13°C° 0 mm 1 mps 623 mmHg 72%
    08:00 +16°C° 0 mm 2 mps 624 mmHg 63%
    09:00 +19°C° 0 mm 2 mps 625 mmHg 54%
    10:00 +22°C° 0 mm 3 mps 626 mmHg 46%
    11:00 +24°C° 0 mm 2 mps 625 mmHg 42%
    12:00 +25°C° 0 mm 2 mps 625 mmHg 39%
    13:00 +25°C° 0 mm 1 mps 624 mmHg 36%
    14:00 +25°C° 0 mm 1 mps 624 mmHg 37%
    15:00 +24°C° 0 mm 1 mps 623 mmHg 39%
    16:00 +24°C° 0 mm 1 mps 623 mmHg 40%
    17:00 +22°C° 0 mm 1 mps 623 mmHg 44%
    18:00 +20°C° 0 mm 1 mps 623 mmHg 49%
    19:00 +18°C° 0 mm 1 mps 622 mmHg 53%
    20:00 +16°C° 0 mm 1 mps 623 mmHg 55%
    21:00 +15°C° 0 mm 0 mps 623 mmHg 56%
    22:00 +14°C° 0 mm 0 mps 623 mmHg 58%
    23:00 +13°C° 0 mm 0 mps 622 mmHg 60%

    26 May, Saturday

    Time Temperature Precipitation Wind Pressure Humidity
    00:00 +13°C° 0 mm 0 mps 622 mmHg 63%
    01:00 +13°C° 0 mm 1 mps 622 mmHg 65%
    02:00 +13°C° 0 mm 1 mps 622 mmHg 67%
    03:00 +12°C° 0 mm 1 mps 621 mmHg 70%
    04:00 +12°C° 0 mm 1 mps 621 mmHg 72%
    05:00 +12°C° 0 mm 1 mps 622 mmHg 72%
    06:00 +13°C° 0 mm 1 mps 622 mmHg 72%
    07:00 +13°C° 0 mm 1 mps 623 mmHg 72%
    08:00 +16°C° 0 mm 2 mps 624 mmHg 64%
    09:00 +18°C° 0 mm 3 mps 625 mmHg 55%
    10:00 +21°C° 0 mm 3 mps 626 mmHg 46%
    11:00 +22°C° 0 mm 3 mps 625 mmHg 42%
    12:00 +24°C° 0 mm 2 mps 625 mmHg 38%
    13:00 +25°C° 0 mm 2 mps 624 mmHg 34%
    14:00 +25°C° 0 mm 2 mps 624 mmHg 35%
    15:00 +25°C° 0 mm 2 mps 623 mmHg 36%
    16:00 +25°C° 0 mm 1 mps 623 mmHg 36%
    17:00 +22°C° 0 mm 1 mps 623 mmHg 42%
    18:00 +20°C° 0 mm 1 mps 623 mmHg 47%
    19:00 +16°C° 0 mm 0 mps 622 mmHg 52%
    20:00 +15°C° 0 mm 0 mps 623 mmHg 53%
    21:00 +15°C° 0 mm 0 mps 623 mmHg 54%
    22:00 +15°C° 0 mm 1 mps 623 mmHg 55%
    23:00 +14°C° 0 mm 1 mps 623 mmHg 59%
    Show more